sat.trackr.live / text

‹ back to catalog

LEGION 3

NORAD 60452 · 2024-146A

PAYLOAD ACTIVE UNKNOWN

§ Identity

Operator
Country
US
Launch date
2024-08-15
Launch site
AFETR
Launch vehicle
Mass (kg)
RCS (m²)

Purposes: earth_obs

External: N2YO · Heavens-Above · Gunter

§ Orbital elements

Epoch: 2026-05-25T03:11:23.112096Z

Period
95.00 min
Inclination
44.9997°
Eccentricity
0.0007582
Mean motion
15.15836063 rev/d
Perigee alt
513.2 km
Apogee alt
523.7 km
Semi-major
6,896.6 km
B*
1.3935e-4
RAAN
154.1813°
Arg perigee
20.8674°
Mean anomaly
339.2512°
Rev number
9,852

§ Raw data

LEGION 31 60452U 24146A   26145.13290639  .00002447  00000+0  13935-3 0  99952 60452  44.9997 154.1813 0007582  20.8674 339.2512 15.15836063 98520

JSON: /api/v1/satellites/60452 · /tle

For live sub-satellite position, see the globe view (requires WebGL).

§ Visibility from observer

Set your observer location to see the next 7 days of passes ≥ 10°. The values pass through the URL so the page stays shareable.

No JS? Fill the form by hand. The geolocation button needs JavaScript.